Williamsport, PA

1:03 AM EDT on July 26, 2017 (GMT -0400)
Williamsport Rgnl

Weather History for KIPT - July, 2013

Change the Weather History Date:

Tuesday, July 2, 2013

  Actual Average Record
Temperature  
Mean Temperature 78 °F 72 °F  
Max Temperature 84 °F 83 °F 99 °F (1966)
Min Temperature 71 °F 61 °F 46 °F (1940)
Degree Days  
Heating Degree Days 0 0  
Month to date heating degree days 0 0  
Since 1 June heating degree days 9 37  
Since 1 July heating degree days 0 0  
Cooling Degree Days 13 7  
Month to date cooling degree days 23 14  
Year to date cooling degree days 254 203  
Since 1 June cooling degree days 183 160  
Growing Degree Days 28 (Base 50)    
Moisture  
Dew Point 70 °F    
Average Humidity 79    
Maximum Humidity 93    
Minimum Humidity 65    
Precipitation  
Precipitation 0.22 in 0.13 in 2.27 in (1908)
Month to date precipitation 0.44 0.26  
Year to date precipitation 17.18 19.09  
Sea Level Pressure  
Sea Level Pressure 30.03 in    
Wind  
Wind Speed 5 mph (SE)    
Max Wind Speed 20 mph    
Max Gust Speed 23 mph    
Visibility 9 miles    
Events Rain    
T = Trace of Precipitation, MM = Missing Value Source: NWS Daily Summary

Daily Weather History Graph

Daily Weather History Graph

Search for Another Location

Airport or City:

Trip Planner

Search our weather history database for the weather conditions in past years. The results will help you decide how hot, cold, wet, or windy it might be!

Date:

Astronomy

Jul. 02, 2013 Rise Set
Actual Time 5:39 AM EDT 8:44 PM EDT
Civil Twilight 5:05 AM EDT 9:17 PM EDT
Nautical Twilight 4:22 AM EDT 10:00 PM EDT
Astronomical Twilight 3:31 AM EDT 10:51 PM EDT
Moon 1:42 AM EDT (7/2) 3:54 PM EDT (7/2)
Length of Visible Light 16h 12m
Length of Day
15h 05m
Waning Crescent, 26% of the Moon is Illuminated
Jul 2
Waning Crescent
Jul 8
New
Jul 15
First Quarter
Jul 22
Full
Jul 29
Last Quarter

Hourly Weather History & Observations

Time (EDT) Temp. Heat Index Dew Point Humidity Pressure Visibility Wind Dir Wind Speed Gust Speed Precip Events Conditions
12:38 AM 71.6 °F - 69.8 °F 94% 29.98 in 10.0 mi ENE 5.8 mph - N/A   Mostly Cloudy
12:54 AM 72.0 °F - 70.0 °F 93% 29.98 in 10.0 mi Calm Calm - N/A   Mostly Cloudy
1:54 AM 72.0 °F - 70.0 °F 93% 29.98 in 9.0 mi SW 3.5 mph - 0.00 in   Overcast
2:26 AM 71.6 °F - 69.8 °F 94% 29.98 in 6.0 mi Calm Calm - N/A   Mostly Cloudy
2:40 AM 71.6 °F - 69.8 °F 94% 29.98 in 8.0 mi Calm Calm - N/A   Mostly Cloudy
2:54 AM 72.0 °F - 69.1 °F 91% 29.98 in 9.0 mi Calm Calm - N/A   Mostly Cloudy
3:54 AM 71.1 °F - 69.1 °F 93% 29.97 in 6.0 mi Calm Calm - N/A   Overcast
4:52 AM 71.6 °F - 69.8 °F 94% 29.99 in 9.0 mi ENE 3.5 mph - N/A   Overcast
4:54 AM 72.0 °F - 69.1 °F 91% 29.98 in 10.0 mi Calm Calm - N/A   Overcast
5:01 AM 71.6 °F - 69.8 °F 94% 29.99 in 10.0 mi East 3.5 mph - N/A   Overcast
5:49 AM 71.6 °F - 69.8 °F 94% 30.01 in 6.0 mi NNW 3.5 mph - N/A   Overcast
5:54 AM 72.0 °F - 69.1 °F 91% 30.00 in 6.0 mi Calm Calm - N/A   Overcast
6:34 AM 73.4 °F - 69.8 °F 88% 30.02 in 10.0 mi Variable 3.5 mph - N/A   Mostly Cloudy
6:44 AM 73.4 °F - 69.8 °F 88% 30.02 in 8.0 mi Variable 3.5 mph - N/A   Mostly Cloudy
6:54 AM 73.9 °F - 70.0 °F 87% 30.01 in 10.0 mi East 4.6 mph - N/A   Overcast
7:31 AM 73.4 °F - 69.8 °F 88% 30.03 in 10.0 mi NE 5.8 mph - N/A   Mostly Cloudy
7:54 AM 75.0 °F - 70.0 °F 84% 30.02 in 10.0 mi ENE 8.1 mph - N/A   Overcast
8:54 AM 75.9 °F - 70.0 °F 82% 30.03 in 10.0 mi Variable 6.9 mph - N/A   Overcast
10:54 AM 78.1 °F - 70.0 °F 76% 30.04 in 10.0 mi Variable 3.5 mph - N/A   Mostly Cloudy
11:13 AM 78.8 °F - 69.8 °F 74% 30.06 in 10.0 mi SE 6.9 mph 16.1 mph N/A   Overcast
11:25 AM 78.8 °F - 69.8 °F 74% 30.06 in 10.0 mi SE 8.1 mph 18.4 mph N/A   Overcast
11:54 AM 79.0 °F - 70.0 °F 74% 30.06 in 10.0 mi East 9.2 mph - N/A   Overcast
12:12 PM 80.6 °F 83.9 °F 69.8 °F 70% 30.06 in 10.0 mi Variable 5.8 mph - 0.00 in   Mostly Cloudy
12:41 PM 80.6 °F 84.6 °F 71.6 °F 74% 30.06 in 10.0 mi SE 8.1 mph - 0.01 in   Overcast
12:52 PM 80.6 °F 84.6 °F 71.6 °F 74% 30.06 in 10.0 mi South 10.4 mph - 0.01 in   Mostly Cloudy
12:54 PM 80.1 °F 83.2 °F 70.0 °F 71% 30.05 in 10.0 mi Variable 6.9 mph - 0.01 in   Mostly Cloudy
1:54 PM 82.0 °F 85.5 °F 69.1 °F 65% 30.03 in 10.0 mi South 11.5 mph 23.0 mph N/A   Scattered Clouds
2:54 PM 82.0 °F 85.9 °F 70.0 °F 67% 30.04 in 10.0 mi South 6.9 mph - N/A   Mostly Cloudy
3:54 PM 81.0 °F 84.9 °F 71.1 °F 72% 30.03 in 10.0 mi ESE 9.2 mph - 0.04 in   Overcast
4:54 PM 82.0 °F 86.3 °F 71.1 °F 69% 30.03 in 10.0 mi SE 5.8 mph - N/A   Overcast
5:54 PM 80.1 °F 82.9 °F 69.1 °F 69% 30.04 in 10.0 mi South 5.8 mph - N/A   Overcast
6:54 PM 75.9 °F - 71.1 °F 85% 30.07 in 4.0 mi Variable 4.6 mph - 0.03 in Rain Rain
7:54 PM 75.0 °F - 72.0 °F 90% 30.08 in 3.0 mi NNW 4.6 mph - 0.09 in Rain Light Rain
8:54 PM 75.9 °F - 69.1 °F 79% 30.08 in 10.0 mi SSW 9.2 mph 17.3 mph 0.04 in Rain Light Rain
9:54 PM 75.9 °F - 68.0 °F 76% 30.10 in 10.0 mi Variable 5.8 mph 20.7 mph 0.01 in   Mostly Cloudy
10:44 PM 75.2 °F - 69.8 °F 83% 30.11 in 10.0 mi Calm Calm - N/A   Mostly Cloudy
10:54 PM 75.0 °F - 68.0 °F 79% 30.10 in 10.0 mi SSW 8.1 mph - N/A   Mostly Cloudy
11:07 PM 75.2 °F - 68.0 °F 78% 30.11 in 10.0 mi Variable 3.5 mph - N/A   Scattered Clouds
11:54 PM 73.9 °F - 68.0 °F 82% 30.11 in 10.0 mi SSE 5.8 mph - N/A   Mostly Cloudy